Regional Weather Roundup
Issued by NWS Sioux Falls, SD

Home | Current Version | Previous Version | Text Only | Print | Product List | Glossary Off
Versions: 1 2 3 4 5 6 7 8 9 10 11 12 13 14 15 16 17 18 19 20 21 22 23 24 25 26 27 28 29 30 31 32 33 34 35 36 37 38 39 40 41 42 43 44 45 46 47 48 49 50

447
ASUS43 KFSD 072010
RWRFSD

WEATHER ROUNDUP FOR SE SOUTH DAKOTA/SW MINNESOTA/NW IOWA
NATIONAL WEATHER SERVICE SIOUX FALLS SD
200 PM CST SUN FEB 07 2016

NOTE: "FAIR" INDICATES FEW OR NO CLOUDS BELOW 12,000 FEET WITH NO
SIGNIFICANT WEATHER AND OR OBSTRUCTIONS TO VISIBILITY.


SDZ038>040-050-052>070-072100-
SOUTHEAST SOUTH DAKOTA

CITY           SKY/WX    TMP DP  RH WIND       PRES   REMARKS
BROOKINGS      FLURRIES  32  27  81 NW25G38   29.75R WCI  19
CHAMBERLAIN    CLOUDY    35  25  67 NW39G52   29.95S WCI  20
HURON          CLOUDY    33  25  72 NW35G47   29.86R WCI  18
MADISON        MIX PCPN  32  32 100 NW32G40   29.79S WCI  17
MITCHELL       LGT SNOW  33  29  85 NW29G44   29.90R FOG     WCI  19
SIOUX FALLS    FLURRIES  35  29  78 NW21G35   29.81S WCI  24
WINNER         FLURRIES  38  21  50 NW35G59   29.99F
YANKTON        CLOUDY   N/A N/A N/A W32G40    29.89F
$$

MNZ071-072-080-081-089-090-097-098-072100-
SOUTHWEST MINNESOTA

CITY           SKY/WX    TMP DP  RH WIND       PRES   REMARKS
FAIRMONT       CLOUDY    37  25  60 W22G31    29.72S
JACKSON        MOSUNNY   36  28  75 W23G33    29.73F
LUVERNE        CLOUDY    36  32  87 NW23G33   29.79F
MARSHALL       LGT RAIN  35  29  78 NW24G32   29.71F WCI  23
MONTEVIDEO     CLOUDY    36  30  80 N30G36    29.70F HAZE
PIPESTONE      CLOUDY    36  25  64 NW22G30   29.75S
REDWOOD FALLS  CLOUDY    36  30  79 W20G30    29.69F
TRACY          FLURRIES  36  31  82 NW16G26   29.72F
WINDOM         PTSUNNY   36  28  75 W24G32    29.71F
WORTHINGTON    PTSUNNY   34  27  75 W23       29.76F WCI  22
$$

IAZ001>003-012>014-020>022-031-032-NEZ013-014-SDZ071-072100-
NORTHWEST IOWA

CITY           SKY/WX    TMP DP  RH WIND       PRES   REMARKS
CHEROKEE       CLOUDY    36  30  80 NW25G35   29.84S
DENISON        PTSUNNY   39  27  60 W22G30    29.86F
ESTHERVILLE    SUNNY     35  28  75 W26       29.74F WCI  22
LE MARS        LGT RAIN  36  34  93 W25G33    29.88F
ORANGE CITY    CLOUDY    34  30  86 W29G35    29.82F WCI  20
SHELDON        CLOUDY    34  30  86 W20G29    29.79F WCI  22
SIOUX CITY     LGT SNOW  37  29  72 NW26G40   29.88F
SPENCER        PTSUNNY   35  28  75 W29G38    29.78F WCI  22
STORM LAKE     MIX PCPN  34  34 100 W23G41    29.83S WCI  22
$$

ABBREVIATIONS USED IN REMARKS
   TC - TEMPERATURE IN CELSIUS
  WCI - WIND CHILL INDEX
   HX - HEAT INDEX
  VSB - VISIBILITY





USA.gov is the U.S. government's official web portal to all federal, state and local government web resources and services.